Time,TemperatureF,DewpointF,PressureIn,WindDirection,WindDirectionDegrees,WindSpeedMPH,WindSpeedGustMPH,Humidity,HourlyPrecipIn,Conditions,Clouds,dailyrainin,SoftwareType,DateUTC
2013-01-14 00:12:00,23.2,21.0,30.21,NW,309,4.0,14.0,90,0.00,,,0.00,weatherlink.com 1.10,2013-01-14 05:12:00,
2013-01-14 00:27:00,22.8,20.0,30.22,NW,305,3.0,10.0,90,0.00,,,0.00,weatherlink.com 1.10,2013-01-14 05:27:00,
2013-01-14 00:42:00,22.5,20.0,30.23,WNW,296,2.0,10.0,90,0.00,,,0.00,weatherlink.com 1.10,2013-01-14 05:42:00,
2013-01-14 00:57:00,22.5,20.0,30.23,WNW,284,0.0,6.0,91,0.00,,,0.00,weatherlink.com 1.10,2013-01-14 05:57:00,
2013-01-14 01:12:00,22.5,20.0,30.23,NNE,12,3.0,5.0,91,0.00,,,0.00,weatherlink.com 1.10,2013-01-14 06:12:00,
2013-01-14 01:27:00,21.8,19.0,30.24,North,354,2.0,11.0,90,0.00,,,0.00,weatherlink.com 1.10,2013-01-14 06:27:00,
2013-01-14 01:42:00,21.6,19.0,30.25,NW,308,4.0,6.0,90,0.00,,,0.00,weatherlink.com 1.10,2013-01-14 06:42:00,
2013-01-14 01:57:00,21.3,19.0,30.26,NNW,334,3.0,6.0,90,0.00,,,0.00,weatherlink.com 1.10,2013-01-14 06:57:00,
2013-01-14 02:12:00,21.0,19.0,30.27,NW,312,4.0,5.0,90,0.00,,,0.00,weatherlink.com 1.10,2013-01-14 07:12:00,
2013-01-14 02:27:00,20.7,18.0,30.27,NW,322,1.0,7.0,90,0.00,,,0.00,weatherlink.com 1.10,2013-01-14 07:27:00,
2013-01-14 02:42:00,20.8,18.0,30.28,WSW,256,5.0,9.0,90,0.00,,,0.00,weatherlink.com 1.10,2013-01-14 07:42:00,
2013-01-14 02:57:00,20.8,18.0,30.29,NNW,342,1.0,7.0,90,0.00,,,0.00,weatherlink.com 1.10,2013-01-14 07:57:00,
2013-01-14 03:12:00,21.0,19.0,30.30,West,259,1.0,7.0,91,0.00,,,0.00,weatherlink.com 1.10,2013-01-14 08:12:00,
2013-01-14 03:28:00,21.1,19.0,30.31,NNW,341,1.0,5.0,91,0.00,,,0.00,weatherlink.com 1.10,2013-01-14 08:28:00,
2013-01-14 03:43:00,20.9,19.0,30.31,West,276,1.0,6.0,91,0.00,,,0.00,weatherlink.com 1.10,2013-01-14 08:43:00,
2013-01-14 03:58:00,20.9,19.0,30.31,North,349,1.0,5.0,91,0.00,,,0.00,weatherlink.com 1.10,2013-01-14 08:58:00,
2013-01-14 04:13:00,20.7,19.0,30.31,North,350,2.0,5.0,91,0.00,,,0.00,weatherlink.com 1.10,2013-01-14 09:13:00,
2013-01-14 04:28:00,20.6,18.0,30.31,WNW,285,1.0,4.0,91,0.00,,,0.00,weatherlink.com 1.10,2013-01-14 09:28:00,
2013-01-14 04:43:00,20.6,18.0,30.31,NW,308,1.0,4.0,91,0.00,,,0.00,weatherlink.com 1.10,2013-01-14 09:43:00,
2013-01-14 04:58:00,20.6,18.0,30.31,NW,316,0.0,5.0,91,0.00,,,0.00,weatherlink.com 1.10,2013-01-14 09:58:00,
2013-01-14 05:13:00,20.4,18.0,30.31,NW,316,2.0,4.0,91,0.00,,,0.00,weatherlink.com 1.10,2013-01-14 10:13:00,
2013-01-14 05:28:00,20.1,18.0,30.31,NNW,347,0.0,4.0,91,0.00,,,0.00,weatherlink.com 1.10,2013-01-14 10:28:00,
2013-01-14 05:43:00,19.6,17.0,30.32,North,359,2.0,5.0,90,0.00,,,0.00,weatherlink.com 1.10,2013-01-14 10:43:00,
2013-01-14 05:58:00,19.6,17.0,30.33,NNE,20,2.0,4.0,91,0.00,,,0.00,weatherlink.com 1.10,2013-01-14 10:58:00,
2013-01-14 06:13:00,19.3,17.0,30.33,NW,313,1.0,6.0,90,0.00,,,0.00,weatherlink.com 1.10,2013-01-14 11:13:00,
2013-01-14 06:28:00,19.2,17.0,30.34,NNW,331,0.0,4.0,91,0.00,,,0.00,weatherlink.com 1.10,2013-01-14 11:28:00,
2013-01-14 06:43:00,19.2,17.0,30.35,NNW,347,1.0,2.0,91,0.00,,,0.00,weatherlink.com 1.10,2013-01-14 11:43:00,
2013-01-14 06:58:00,18.9,17.0,30.36,NNW,341,0.0,4.0,90,0.00,,,0.00,weatherlink.com 1.10,2013-01-14 11:58:00,
2013-01-14 07:13:00,18.1,16.0,30.36,NE,41,1.0,5.0,90,0.00,,,0.00,weatherlink.com 1.10,2013-01-14 12:13:00,
2013-01-14 07:28:00,17.8,15.0,30.37,NNW,331,0.0,4.0,90,0.00,,,0.00,weatherlink.com 1.10,2013-01-14 12:28:00,
2013-01-14 07:43:00,18.0,16.0,30.39,NNE,20,0.0,3.0,90,0.00,,,0.00,weatherlink.com 1.10,2013-01-14 12:43:00,
2013-01-14 07:58:00,17.8,15.0,30.38,NW,308,0.0,2.0,90,0.00,,,0.00,weatherlink.com 1.10,2013-01-14 12:58:00,
2013-01-14 08:13:00,17.6,15.0,30.39,NW,315,3.0,5.0,90,0.00,,,0.00,weatherlink.com 1.10,2013-01-14 13:13:00,
2013-01-14 08:28:00,17.4,15.0,30.40,NNW,342,1.0,4.0,90,0.00,,,0.00,weatherlink.com 1.10,2013-01-14 13:28:00,
2013-01-14 08:43:00,17.4,15.0,30.40,East,93,1.0,3.0,89,0.00,,,0.00,weatherlink.com 1.10,2013-01-14 13:43:00,
2013-01-14 08:58:00,17.2,15.0,30.40,WNW,290,0.0,4.0,89,0.00,,,0.00,weatherlink.com 1.10,2013-01-14 13:58:00,
2013-01-14 09:13:00,17.0,14.0,30.40,NW,319,0.0,3.0,89,0.00,,,0.00,weatherlink.com 1.10,2013-01-14 14:13:00,
2013-01-14 09:28:00,17.5,15.0,30.40,SE,132,0.0,3.0,89,0.00,,,0.00,weatherlink.com 1.10,2013-01-14 14:28:00,
2013-01-14 09:43:00,17.8,15.0,30.40,East,96,1.0,4.0,89,0.00,,,0.00,weatherlink.com 1.10,2013-01-14 14:43:00,
2013-01-14 09:58:00,18.0,15.0,30.39,ENE,70,2.0,4.0,89,0.00,,,0.00,weatherlink.com 1.10,2013-01-14 14:58:00,
2013-01-14 10:13:00,18.8,16.0,30.38,North,1,1.0,4.0,87,0.00,,,0.00,weatherlink.com 1.10,2013-01-14 15:13:00,
2013-01-14 10:28:00,19.8,17.0,30.39,North,358,0.0,4.0,88,0.00,,,0.00,weatherlink.com 1.10,2013-01-14 15:28:00,
2013-01-14 10:43:00,20.5,17.0,30.39,WNW,298,0.0,6.0,87,0.00,,,0.00,weatherlink.com 1.10,2013-01-14 15:43:00,
2013-01-14 10:58:00,21.2,17.0,30.40,East,87,1.0,5.0,84,0.00,,,0.00,weatherlink.com 1.10,2013-01-14 15:58:00,
2013-01-14 11:13:00,22.2,18.0,30.40,NNE,26,0.0,4.0,84,0.00,,,0.00,weatherlink.com 1.10,2013-01-14 16:13:00,
2013-01-14 11:28:00,22.6,19.0,30.38,NW,314,0.0,3.0,84,0.00,,,0.00,weatherlink.com 1.10,2013-01-14 16:28:00,
2013-01-14 11:43:00,22.9,19.0,30.41,NE,45,1.0,4.0,83,0.00,,,0.00,weatherlink.com 1.10,2013-01-14 16:43:00,
2013-01-14 11:58:00,23.5,19.0,30.39,WNW,296,2.0,2.0,83,0.00,,,0.00,weatherlink.com 1.10,2013-01-14 16:58:00,
2013-01-14 12:14:00,24.0,19.0,30.39,NNE,25,4.0,4.0,82,0.00,,,0.00,weatherlink.com 1.10,2013-01-14 17:14:00,
2013-01-14 12:29:00,24.5,19.0,30.41,NNE,13,0.0,4.0,79,0.00,,,0.00,weatherlink.com 1.10,2013-01-14 17:29:00,
2013-01-14 12:44:00,25.0,19.0,30.41,WSW,241,0.0,3.0,78,0.00,,,0.00,weatherlink.com 1.10,2013-01-14 17:44:00,
2013-01-14 12:59:00,25.2,20.0,30.39,NW,304,2.0,6.0,79,0.00,,,0.00,weatherlink.com 1.10,2013-01-14 17:59:00,
2013-01-14 13:14:00,25.7,20.0,30.38,NW,311,1.0,5.0,79,0.00,,,0.00,weatherlink.com 1.10,2013-01-14 18:14:00,
2013-01-14 13:29:00,25.5,20.0,30.38,WNW,288,0.0,6.0,79,0.00,,,0.00,weatherlink.com 1.10,2013-01-14 18:29:00,
2013-01-14 13:44:00,25.1,19.0,30.37,NE,34,4.0,6.0,79,0.00,,,0.00,weatherlink.com 1.10,2013-01-14 18:44:00,
2013-01-14 13:59:00,25.2,20.0,30.38,WSW,245,0.0,6.0,80,0.00,,,0.00,weatherlink.com 1.10,2013-01-14 18:59:00,
2013-01-14 14:14:00,25.3,19.0,30.40,NNW,346,2.0,5.0,78,0.00,,,0.00,weatherlink.com 1.10,2013-01-14 19:14:00,
2013-01-14 14:29:00,25.0,19.0,30.39,North,8,5.0,5.0,77,0.00,,,0.00,weatherlink.com 1.10,2013-01-14 19:29:00,
2013-01-14 14:44:00,25.2,19.0,30.42,WNW,287,2.0,7.0,78,0.00,,,0.00,weatherlink.com 1.10,2013-01-14 19:44:00,
2013-01-14 14:59:00,24.9,19.0,30.42,NW,308,2.0,4.0,78,0.00,,,0.00,weatherlink.com 1.10,2013-01-14 19:59:00,
2013-01-14 15:14:00,24.9,19.0,30.44,WSW,258,1.0,3.0,78,0.00,,,0.00,weatherlink.com 1.10,2013-01-14 20:14:00,
2013-01-14 15:29:00,24.5,18.0,30.44,SW,224,0.0,4.0,77,0.00,,,0.00,weatherlink.com 1.10,2013-01-14 20:29:00,
2013-01-14 15:44:00,24.4,18.0,30.45,North,6,1.0,2.0,78,0.00,,,0.00,weatherlink.com 1.10,2013-01-14 20:44:00,
2013-01-14 15:59:00,24.7,19.0,30.44,ENE,60,2.0,3.0,79,0.00,,,0.00,weatherlink.com 1.10,2013-01-14 20:59:00,
2013-01-14 16:29:00,24.7,20.0,30.42,NW,316,1.0,4.0,81,0.00,,,0.00,weatherlink.com 1.10,2013-01-14 21:29:00,
2013-01-14 16:44:00,24.6,19.0,30.41,NNW,338,2.0,5.0,80,0.00,,,0.00,weatherlink.com 1.10,2013-01-14 21:44:00,
2013-01-14 16:59:00,24.3,19.0,30.42,ENE,68,4.0,4.0,80,0.00,,,0.00,weatherlink.com 1.10,2013-01-14 21:59:00,
2013-01-14 17:14:00,23.9,19.0,30.43,NNE,15,2.0,5.0,81,0.00,,,0.00,weatherlink.com 1.10,2013-01-14 22:14:00,
2013-01-14 17:29:00,24.0,20.0,30.42,North,6,7.0,7.0,83,0.00,,,0.00,weatherlink.com 1.10,2013-01-14 22:29:00,
2013-01-14 17:44:00,23.9,20.0,30.41,NNE,29,1.0,4.0,84,0.00,,,0.00,weatherlink.com 1.10,2013-01-14 22:44:00,
2013-01-14 17:59:00,23.5,19.0,30.39,ENE,74,2.0,4.0,83,0.00,,,0.00,weatherlink.com 1.10,2013-01-14 22:59:00,
2013-01-14 18:15:00,23.1,19.0,30.39,NE,41,6.0,7.0,84,0.00,,,0.00,weatherlink.com 1.10,2013-01-14 23:15:00,
2013-01-14 18:29:00,23.0,19.0,30.39,NE,55,0.0,2.0,84,0.00,,,0.00,weatherlink.com 1.10,2013-01-14 23:29:00,
2013-01-14 18:44:00,22.8,19.0,30.39,SE,131,2.0,5.0,84,0.00,,,0.00,weatherlink.com 1.10,2013-01-14 23:44:00,
2013-01-14 18:59:00,22.6,19.0,30.39,NE,55,0.0,2.0,84,0.00,,,0.00,weatherlink.com 1.10,2013-01-14 23:59:00,
2013-01-14 19:14:00,22.8,19.0,30.40,ENE,60,1.0,3.0,85,0.00,,,0.00,weatherlink.com 1.10,2013-01-15 00:14:00,
2013-01-14 19:29:00,22.8,19.0,30.40,NNE,18,0.0,2.0,85,0.00,,,0.00,weatherlink.com 1.10,2013-01-15 00:29:00,
2013-01-14 19:44:00,22.9,19.0,30.39,ENE,68,0.0,2.0,86,0.00,,,0.00,weatherlink.com 1.10,2013-01-15 00:44:00,
2013-01-14 19:59:00,22.8,19.0,30.38,NE,39,0.0,3.0,85,0.00,,,0.00,weatherlink.com 1.10,2013-01-15 00:59:00,
2013-01-14 20:14:00,22.3,19.0,30.37,NNW,338,0.0,2.0,86,0.00,,,0.00,weatherlink.com 1.10,2013-01-15 01:14:00,
2013-01-14 20:29:00,21.8,19.0,30.37,East,79,1.0,1.0,87,0.00,,,0.00,weatherlink.com 1.10,2013-01-15 01:29:00,
2013-01-14 20:44:00,21.6,18.0,30.36,NW,322,0.0,2.0,87,0.00,,,0.00,weatherlink.com 1.10,2013-01-15 01:44:00,
2013-01-14 20:59:00,21.0,18.0,30.36,North,4,0.0,2.0,88,0.00,,,0.00,weatherlink.com 1.10,2013-01-15 01:59:00,
2013-01-14 21:14:00,20.9,18.0,30.36,East,84,0.0,2.0,88,0.00,,,0.00,weatherlink.com 1.10,2013-01-15 02:14:00,
2013-01-14 21:29:00,20.6,18.0,30.36,NNW,333,1.0,2.0,88,0.00,,,0.00,weatherlink.com 1.10,2013-01-15 02:29:00,
2013-01-14 21:44:00,20.6,18.0,30.36,North,6,0.0,1.0,89,0.00,,,0.00,weatherlink.com 1.10,2013-01-15 02:44:00,
2013-01-14 21:59:00,20.3,18.0,30.36,NNE,18,0.0,1.0,89,0.00,,,0.00,weatherlink.com 1.10,2013-01-15 02:59:00,
2013-01-14 22:14:00,20.4,18.0,30.36,ESE,104,0.0,0.0,89,0.00,,,0.00,weatherlink.com 1.10,2013-01-15 03:14:00,
2013-01-14 22:29:00,20.0,17.0,30.36,NE,35,0.0,0.0,89,0.00,,,0.00,weatherlink.com 1.10,2013-01-15 03:29:00,
2013-01-14 22:44:00,20.0,17.0,30.36,NE,37,1.0,1.0,89,0.00,,,0.00,weatherlink.com 1.10,2013-01-15 03:44:00,
2013-01-14 22:59:00,20.1,17.0,30.37,East,100,0.0,1.0,89,0.00,,,0.00,weatherlink.com 1.10,2013-01-15 03:59:00,
2013-01-14 23:14:00,19.7,17.0,30.37,NNE,18,0.0,1.0,90,0.00,,,0.00,weatherlink.com 1.10,2013-01-15 04:14:00,
2013-01-14 23:29:00,19.4,17.0,30.37,NNW,338,0.0,2.0,90,0.00,,,0.00,weatherlink.com 1.10,2013-01-15 04:29:00,
2013-01-14 23:44:00,19.5,17.0,30.38,East,79,0.0,1.0,90,0.00,,,0.00,weatherlink.com 1.10,2013-01-15 04:44:00,
2013-01-14 23:59:00,19.3,17.0,30.38,North,6,0.0,1.0,90,0.00,,,0.00,weatherlink.com 1.10,2013-01-15 04:59:00,